Time,TemperatureF,DewpointF,PressureIn,WindDirection,WindDirectionDegrees,WindSpeedMPH,WindSpeedGustMPH,Humidity,HourlyPrecipIn,Conditions,Clouds,dailyrainin,SolarRadiationWatts/m^2,SoftwareType,DateUTC
2014-07-23 00:01:00,79.9,69.2,30.01,West,273,0.0,0.0,70,0.00,,,0.00,0,WeatherCatV1.24B11,2014-07-23 04:01:00,
2014-07-23 00:02:00,79.9,69.2,30.01,West,273,1.0,1.0,70,0.00,,,0.00,0,WeatherCatV1.24B11,2014-07-23 04:02:00,
2014-07-23 00:07:00,79.7,69.0,30.01,West,273,0.0,0.0,70,0.00,,,0.00,0,WeatherCatV1.24B11,2014-07-23 04:07:00,
2014-07-23 00:12:00,79.6,68.9,30.01,West,273,0.0,1.0,70,0.00,,,0.00,0,WeatherCatV1.24B11,2014-07-23 04:12:00,
2014-07-23 00:17:00,79.5,69.2,30.01,West,273,0.0,0.0,71,0.00,,,0.00,0,WeatherCatV1.24B11,2014-07-23 04:17:00,
2014-07-23 00:22:00,79.4,69.2,30.01,West,273,0.0,0.0,71,0.00,,,0.00,0,WeatherCatV1.24B11,2014-07-23 04:22:00,
2014-07-23 00:27:00,79.4,69.2,30.01,West,273,0.0,0.0,71,0.00,,,0.00,0,WeatherCatV1.24B11,2014-07-23 04:27:00,
2014-07-23 00:32:00,79.3,69.1,30.01,West,273,0.0,0.0,71,0.00,,,0.00,0,WeatherCatV1.24B11,2014-07-23 04:32:00,
2014-07-23 00:37:00,79.1,69.3,30.00,West,273,1.0,1.0,72,0.00,,,0.00,0,WeatherCatV1.24B11,2014-07-23 04:37:00,
2014-07-23 00:42:00,79.0,69.6,30.00,WSW,237,0.0,2.0,73,0.00,,,0.00,0,WeatherCatV1.24B11,2014-07-23 04:42:00,
2014-07-23 00:47:00,78.8,69.4,30.00,SSW,203,0.0,2.0,73,0.00,,,0.00,0,WeatherCatV1.24B11,2014-07-23 04:47:00,
2014-07-23 00:52:00,78.6,69.2,30.00,SSW,198,0.0,2.0,73,0.00,,,0.00,0,WeatherCatV1.24B11,2014-07-23 04:52:00,
2014-07-23 00:57:00,78.6,69.2,30.01,SSW,198,0.0,0.0,73,0.00,,,0.00,0,WeatherCatV1.24B11,2014-07-23 04:57:00,
2014-07-23 01:02:00,78.5,69.5,30.01,SSW,198,0.0,0.0,74,0.00,,,0.00,0,WeatherCatV1.24B11,2014-07-23 05:02:00,
2014-07-23 01:07:00,78.4,69.4,30.01,SSW,198,0.0,0.0,74,0.00,,,0.00,0,WeatherCatV1.24B11,2014-07-23 05:07:00,
2014-07-23 01:12:00,78.3,69.3,30.01,SSW,198,0.0,0.0,74,0.00,,,0.00,0,WeatherCatV1.24B11,2014-07-23 05:12:00,
2014-07-23 01:17:00,78.1,69.5,30.01,SSW,198,1.0,1.0,75,0.00,,,0.00,0,WeatherCatV1.24B11,2014-07-23 05:17:00,
2014-07-23 01:22:00,78.0,69.4,30.00,SSW,198,0.0,0.0,75,0.00,,,0.00,0,WeatherCatV1.24B11,2014-07-23 05:22:00,
2014-07-23 01:27:00,77.8,69.2,30.00,SSW,198,0.0,1.0,75,0.00,,,0.00,0,WeatherCatV1.24B11,2014-07-23 05:27:00,
2014-07-23 01:32:00,77.8,69.2,30.01,SSW,198,0.0,0.0,75,0.00,,,0.00,0,WeatherCatV1.24B11,2014-07-23 05:32:00,
2014-07-23 01:37:00,77.7,69.5,30.01,SSW,198,0.0,1.0,76,0.00,,,0.00,0,WeatherCatV1.24B11,2014-07-23 05:37:00,
2014-07-23 01:42:00,77.6,69.4,30.00,SSW,198,1.0,1.0,76,0.00,,,0.00,0,WeatherCatV1.24B11,2014-07-23 05:42:00,
2014-07-23 01:47:00,77.4,69.6,30.00,SSW,198,0.0,1.0,77,0.00,,,0.00,0,WeatherCatV1.24B11,2014-07-23 05:47:00,
2014-07-23 01:52:00,77.4,69.6,30.00,SSW,198,0.0,0.0,77,0.00,,,0.00,0,WeatherCatV1.24B11,2014-07-23 05:52:00,
2014-07-23 01:57:00,77.3,69.5,30.00,SSW,198,0.0,0.0,77,0.00,,,0.00,0,WeatherCatV1.24B11,2014-07-23 05:57:00,
2014-07-23 02:02:00,77.2,69.8,30.00,SSW,198,0.0,0.0,78,0.00,,,0.00,0,WeatherCatV1.24B11,2014-07-23 06:02:00,
2014-07-23 02:08:00,77.1,69.7,30.00,SSW,198,0.0,0.0,78,0.00,,,0.00,0,WeatherCatV1.24B11,2014-07-23 06:08:00,
2014-07-23 02:13:00,77.1,69.7,30.00,SSW,198,0.0,1.0,78,0.00,,,0.00,0,WeatherCatV1.24B11,2014-07-23 06:13:00,
2014-07-23 02:18:00,76.9,69.5,30.01,SW,233,1.0,2.0,78,0.00,,,0.00,0,WeatherCatV1.24B11,2014-07-23 06:18:00,
2014-07-23 02:23:00,76.9,69.5,30.01,SW,233,0.0,1.0,78,0.00,,,0.00,0,WeatherCatV1.24B11,2014-07-23 06:23:00,
2014-07-23 02:28:00,76.9,69.5,30.01,SW,233,2.0,2.0,78,0.00,,,0.00,0,WeatherCatV1.24B11,2014-07-23 06:28:00,
2014-07-23 02:33:00,76.9,69.5,30.01,SW,233,0.0,1.0,78,0.00,,,0.00,0,WeatherCatV1.24B11,2014-07-23 06:33:00,
2014-07-23 02:38:00,76.9,69.5,30.00,SW,233,0.0,0.0,78,0.00,,,0.00,0,WeatherCatV1.24B11,2014-07-23 06:38:00,
2014-07-23 02:43:00,76.8,69.4,30.00,SW,233,0.0,0.0,78,0.00,,,0.00,0,WeatherCatV1.24B11,2014-07-23 06:43:00,
2014-07-23 02:48:00,76.8,69.4,30.00,SW,228,1.0,2.0,78,0.00,,,0.00,0,WeatherCatV1.24B11,2014-07-23 06:48:00,
2014-07-23 02:53:00,76.7,69.3,30.00,SSW,194,1.0,2.0,78,0.00,,,0.00,0,WeatherCatV1.24B11,2014-07-23 06:53:00,
2014-07-23 02:58:00,76.7,69.3,30.00,SSW,194,0.0,0.0,78,0.00,,,0.00,0,WeatherCatV1.24B11,2014-07-23 06:58:00,
2014-07-23 03:03:00,76.6,69.6,30.00,SSW,194,0.0,1.0,79,0.00,,,0.00,0,WeatherCatV1.24B11,2014-07-23 07:03:00,
2014-07-23 03:08:00,76.6,69.6,30.00,SSW,213,1.0,2.0,79,0.00,,,0.00,0,WeatherCatV1.24B11,2014-07-23 07:08:00,
2014-07-23 03:13:00,76.5,69.5,30.00,SSW,213,0.0,1.0,79,0.00,,,0.00,0,WeatherCatV1.24B11,2014-07-23 07:13:00,
2014-07-23 03:18:00,76.4,69.4,30.00,SSW,213,1.0,1.0,79,0.00,,,0.00,0,WeatherCatV1.24B11,2014-07-23 07:18:00,
2014-07-23 03:23:00,76.4,69.4,30.00,SSW,213,0.0,1.0,79,0.00,,,0.00,0,WeatherCatV1.24B11,2014-07-23 07:23:00,
2014-07-23 03:28:00,76.3,69.3,29.99,SSW,213,0.0,0.0,79,0.00,,,0.00,0,WeatherCatV1.24B11,2014-07-23 07:28:00,
2014-07-23 03:33:00,76.2,69.6,29.98,SSW,213,0.0,2.0,80,0.00,,,0.00,0,WeatherCatV1.24B11,2014-07-23 07:33:00,
2014-07-23 03:38:00,76.0,69.4,29.98,SSW,213,2.0,2.0,80,0.00,,,0.00,0,WeatherCatV1.24B11,2014-07-23 07:38:00,
2014-07-23 03:43:00,75.9,69.3,29.98,SSW,209,0.0,2.0,80,0.00,,,0.00,0,WeatherCatV1.24B11,2014-07-23 07:43:00,
2014-07-23 03:48:00,75.9,69.3,29.98,South,187,0.0,0.0,80,0.00,,,0.00,0,WeatherCatV1.24B11,2014-07-23 07:48:00,
2014-07-23 03:53:00,75.8,69.5,29.98,SW,230,2.0,3.0,81,0.00,,,0.00,0,WeatherCatV1.24B11,2014-07-23 07:53:00,
2014-07-23 03:58:00,75.7,69.4,29.98,SW,230,1.0,1.0,81,0.00,,,0.00,0,WeatherCatV1.24B11,2014-07-23 07:58:00,
2014-07-23 04:03:00,75.7,69.1,29.98,SW,233,1.0,2.0,80,0.00,,,0.00,0,WeatherCatV1.24B11,2014-07-23 08:03:00,
2014-07-23 04:08:00,75.6,69.3,29.98,WSW,239,1.0,2.0,81,0.00,,,0.00,0,WeatherCatV1.24B11,2014-07-23 08:08:00,
2014-07-23 04:13:00,75.6,69.3,29.98,WSW,239,2.0,3.0,81,0.00,,,0.00,0,WeatherCatV1.24B11,2014-07-23 08:13:00,
2014-07-23 04:18:00,75.6,69.3,29.98,WSW,249,1.0,2.0,81,0.00,,,0.00,0,WeatherCatV1.24B11,2014-07-23 08:18:00,
2014-07-23 04:23:00,75.5,69.2,29.98,WSW,249,0.0,1.0,81,0.00,,,0.00,0,WeatherCatV1.24B11,2014-07-23 08:23:00,
2014-07-23 04:29:00,75.5,69.2,29.98,WSW,249,1.0,1.0,81,0.00,,,0.00,0,WeatherCatV1.24B11,2014-07-23 08:29:00,
2014-07-23 04:34:00,75.5,69.2,29.98,WSW,249,0.0,2.0,81,0.00,,,0.00,0,WeatherCatV1.24B11,2014-07-23 08:34:00,
2014-07-23 04:39:00,75.5,69.2,29.99,WSW,244,2.0,4.0,81,0.00,,,0.00,0,WeatherCatV1.24B11,2014-07-23 08:39:00,
2014-07-23 04:44:00,75.4,69.2,29.99,WSW,244,3.0,3.0,81,0.00,,,0.00,0,WeatherCatV1.24B11,2014-07-23 08:44:00,
2014-07-23 04:49:00,75.4,69.2,29.99,WSW,246,1.0,3.0,81,0.00,,,0.00,0,WeatherCatV1.24B11,2014-07-23 08:49:00,
2014-07-23 04:54:00,75.3,69.1,29.99,WSW,241,1.0,3.0,81,0.00,,,0.00,0,WeatherCatV1.24B11,2014-07-23 08:54:00,
2014-07-23 04:59:00,75.3,69.1,29.99,WSW,241,2.0,2.0,81,0.00,,,0.00,0,WeatherCatV1.24B11,2014-07-23 08:59:00,
2014-07-23 05:04:00,75.2,69.3,29.99,WSW,241,0.0,1.0,82,0.00,,,0.00,0,WeatherCatV1.24B11,2014-07-23 09:04:00,
2014-07-23 05:09:00,75.1,69.2,30.00,WSW,241,0.0,1.0,82,0.00,,,0.00,0,WeatherCatV1.24B11,2014-07-23 09:09:00,
2014-07-23 05:14:00,75.0,69.1,30.00,WSW,241,1.0,2.0,82,0.00,,,0.00,0,WeatherCatV1.24B11,2014-07-23 09:14:00,
2014-07-23 05:19:00,75.0,69.5,30.00,WSW,256,1.0,2.0,83,0.00,,,0.00,0,WeatherCatV1.24B11,2014-07-23 09:19:00,
2014-07-23 05:24:00,74.9,69.4,30.00,WSW,255,1.0,3.0,83,0.00,,,0.00,0,WeatherCatV1.24B11,2014-07-23 09:24:00,
2014-07-23 05:29:00,74.9,69.4,30.01,West,259,0.0,2.0,83,0.00,,,0.00,0,WeatherCatV1.24B11,2014-07-23 09:29:00,
2014-07-23 05:34:00,74.8,69.3,30.01,West,259,1.0,2.0,83,0.00,,,0.00,0,WeatherCatV1.24B11,2014-07-23 09:34:00,
2014-07-23 05:39:00,74.8,69.3,30.01,WSW,242,0.0,1.0,83,0.00,,,0.00,0,WeatherCatV1.24B11,2014-07-23 09:39:00,
2014-07-23 05:44:00,74.8,69.3,30.01,WSW,242,0.0,1.0,83,0.00,,,0.00,0,WeatherCatV1.24B11,2014-07-23 09:44:00,
2014-07-23 05:49:00,74.8,69.3,30.02,WSW,242,0.0,1.0,83,0.00,,,0.00,0,WeatherCatV1.24B11,2014-07-23 09:49:00,
2014-07-23 05:54:00,74.8,69.3,30.01,WSW,242,0.0,1.0,83,0.00,,,0.00,0,WeatherCatV1.24B11,2014-07-23 09:54:00,
2014-07-23 05:59:00,74.8,69.3,30.02,WSW,242,0.0,0.0,83,0.00,,,0.00,0,WeatherCatV1.24B11,2014-07-23 09:59:00,
2014-07-23 06:04:00,74.8,69.3,30.02,WSW,242,0.0,0.0,83,0.00,,,0.00,0,WeatherCatV1.24B11,2014-07-23 10:04:00,
2014-07-23 06:09:00,74.8,69.3,30.02,WSW,242,1.0,3.0,83,0.00,,,0.00,0,WeatherCatV1.24B11,2014-07-23 10:09:00,
2014-07-23 06:14:00,74.8,69.3,30.02,WSW,242,0.0,1.0,83,0.00,,,0.00,0,WeatherCatV1.24B11,2014-07-23 10:14:00,
2014-07-23 06:19:00,74.8,69.3,30.02,WSW,242,1.0,1.0,83,0.00,,,0.00,0,WeatherCatV1.24B11,2014-07-23 10:19:00,
2014-07-23 06:24:00,74.8,69.3,30.02,WSW,242,1.0,2.0,83,0.00,,,0.00,0,WeatherCatV1.24B11,2014-07-23 10:24:00,
2014-07-23 06:29:00,74.7,68.8,30.02,WSW,242,0.0,3.0,82,0.00,,,0.00,0,WeatherCatV1.24B11,2014-07-23 10:29:00,
2014-07-23 06:34:00,74.7,68.8,30.03,WSW,242,0.0,0.0,82,0.00,,,0.00,0,WeatherCatV1.24B11,2014-07-23 10:34:00,
2014-07-23 06:39:00,74.7,68.8,30.03,WSW,242,0.0,3.0,82,0.00,,,0.00,0,WeatherCatV1.24B11,2014-07-23 10:39:00,
2014-07-23 06:44:00,74.6,68.7,30.02,WSW,242,0.0,0.0,82,0.00,,,0.00,0,WeatherCatV1.24B11,2014-07-23 10:44:00,
2014-07-23 06:49:00,74.6,69.1,30.02,WSW,242,0.0,1.0,83,0.00,,,0.00,0,WeatherCatV1.24B11,2014-07-23 10:49:00,
2014-07-23 06:54:00,74.6,69.1,30.02,WNW,283,1.0,1.0,83,0.00,,,0.00,0,WeatherCatV1.24B11,2014-07-23 10:54:00,
2014-07-23 06:59:00,74.6,69.1,30.02,WNW,283,0.0,1.0,83,0.00,,,0.00,5,WeatherCatV1.24B11,2014-07-23 10:59:00,
2014-07-23 07:04:00,74.6,69.1,30.03,WNW,283,0.0,1.0,83,0.00,,,0.00,5,WeatherCatV1.24B11,2014-07-23 11:04:00,
2014-07-23 07:10:00,74.6,69.1,30.03,WNW,301,2.0,4.0,83,0.00,,,0.00,7,WeatherCatV1.24B11,2014-07-23 11:10:00,
2014-07-23 07:15:00,74.6,69.1,30.03,NW,309,0.0,3.0,83,0.00,,,0.00,12,WeatherCatV1.24B11,2014-07-23 11:15:00,
2014-07-23 07:20:00,74.6,69.1,30.03,NW,321,1.0,4.0,83,0.00,,,0.00,19,WeatherCatV1.24B11,2014-07-23 11:20:00,
2014-07-23 07:25:00,74.6,69.1,30.04,North,359,3.0,6.0,83,0.00,,,0.00,12,WeatherCatV1.24B11,2014-07-23 11:25:00,
2014-07-23 07:30:00,74.7,68.8,30.05,North,10,9.0,13.0,82,0.00,,,0.00,11,WeatherCatV1.24B11,2014-07-23 11:30:00,
2014-07-23 07:35:00,74.5,69.0,30.05,North,358,5.0,11.0,83,0.00,,,0.00,12,WeatherCatV1.24B11,2014-07-23 11:35:00,
2014-07-23 07:40:00,74.5,69.0,30.05,ESE,117,6.0,7.0,83,0.00,,,0.00,25,WeatherCatV1.24B11,2014-07-23 11:40:00,
2014-07-23 07:45:00,74.4,68.2,30.05,NW,324,3.0,13.0,81,0.00,,,0.00,28,WeatherCatV1.24B11,2014-07-23 11:45:00,
2014-07-23 07:50:00,74.3,67.7,30.05,NNE,15,4.0,6.0,80,0.00,,,0.00,32,WeatherCatV1.24B11,2014-07-23 11:50:00,
2014-07-23 07:55:00,74.3,67.7,30.05,ENE,67,2.0,7.0,80,0.00,,,0.00,30,WeatherCatV1.24B11,2014-07-23 11:55:00,
2014-07-23 08:00:00,74.1,67.5,30.05,ENE,60,3.0,5.0,80,0.00,,,0.00,16,WeatherCatV1.24B11,2014-07-23 12:00:00,
2014-07-23 08:05:00,73.7,67.1,30.06,NE,49,4.0,10.0,80,0.00,,,0.00,7,WeatherCatV1.24B11,2014-07-23 12:05:00,
2014-07-23 08:10:00,72.8,67.0,30.05,ENE,59,6.0,7.0,82,0.00,,,0.00,9,WeatherCatV1.24B11,2014-07-23 12:10:00,
2014-07-23 08:15:00,72.1,67.0,30.05,SE,128,4.0,9.0,84,0.00,,,0.00,12,WeatherCatV1.24B11,2014-07-23 12:15:00,
2014-07-23 08:20:00,71.6,66.8,30.04,ESE,108,5.0,7.0,85,0.00,,,0.00,14,WeatherCatV1.24B11,2014-07-23 12:20:00,
2014-07-23 08:25:00,71.3,67.2,30.05,SE,135,2.0,6.0,87,0.00,,,0.00,12,WeatherCatV1.24B11,2014-07-23 12:25:00,
2014-07-23 08:30:00,71.0,66.9,30.05,SE,142,4.0,5.0,87,0.00,,,0.00,12,WeatherCatV1.24B11,2014-07-23 12:30:00,
2014-07-23 08:35:00,70.8,67.1,30.05,East,90,1.0,5.0,88,0.00,,,0.00,14,WeatherCatV1.24B11,2014-07-23 12:35:00,
2014-07-23 08:40:00,70.6,67.2,30.04,East,96,1.0,1.0,89,0.00,,,0.00,16,WeatherCatV1.24B11,2014-07-23 12:40:00,
2014-07-23 08:45:00,70.5,67.1,30.05,East,99,6.0,7.0,89,0.00,,,0.00,14,WeatherCatV1.24B11,2014-07-23 12:45:00,
2014-07-23 08:50:00,70.3,66.6,30.05,ENE,58,3.0,5.0,88,0.00,,,0.00,14,WeatherCatV1.24B11,2014-07-23 12:50:00,
2014-07-23 08:55:00,70.3,66.9,30.05,ESE,112,0.0,6.0,89,0.00,,,0.00,16,WeatherCatV1.24B11,2014-07-23 12:55:00,
2014-07-23 09:00:00,70.2,66.8,30.05,East,93,2.0,4.0,89,0.00,,,0.00,26,WeatherCatV1.24B11,2014-07-23 13:00:00,
2014-07-23 09:05:00,70.2,66.5,30.05,ESE,103,2.0,6.0,88,0.00,,,0.00,54,WeatherCatV1.24B11,2014-07-23 13:05:00,
2014-07-23 09:10:00,70.2,66.5,30.04,SE,127,2.0,5.0,88,0.00,,,0.00,77,WeatherCatV1.24B11,2014-07-23 13:10:00,
2014-07-23 09:15:00,70.1,66.7,30.04,ESE,123,5.0,6.0,89,0.00,,,0.00,69,WeatherCatV1.24B11,2014-07-23 13:15:00,
2014-07-23 09:20:00,70.1,66.7,30.03,South,169,0.0,3.0,89,0.00,,,0.00,60,WeatherCatV1.24B11,2014-07-23 13:20:00,
2014-07-23 09:25:00,70.0,66.6,30.03,SE,140,2.0,7.0,89,0.00,,,0.00,81,WeatherCatV1.24B11,2014-07-23 13:25:00,
2014-07-23 09:30:00,70.0,66.6,30.02,ESE,120,4.0,6.0,89,0.00,,,0.00,62,WeatherCatV1.24B11,2014-07-23 13:30:00,
2014-07-23 09:35:00,69.9,66.5,30.03,SE,129,0.0,4.0,89,0.00,,,0.00,58,WeatherCatV1.24B11,2014-07-23 13:35:00,
2014-07-23 09:40:00,69.8,66.1,30.03,SE,130,0.0,0.0,88,0.00,,,0.00,65,WeatherCatV1.24B11,2014-07-23 13:40:00,
2014-07-23 09:45:00,70.1,67.0,30.02,SE,130,0.0,1.0,90,0.00,,,0.00,67,WeatherCatV1.24B11,2014-07-23 13:45:00,
2014-07-23 09:50:00,70.0,66.6,30.01,SE,130,0.0,1.0,89,0.00,,,0.00,58,WeatherCatV1.24B11,2014-07-23 13:50:00,
2014-07-23 09:56:00,70.1,67.0,30.00,SE,130,1.0,2.0,90,0.00,,,0.00,49,WeatherCatV1.24B11,2014-07-23 13:56:00,
2014-07-23 10:01:00,70.0,66.6,29.99,SSE,156,2.0,4.0,89,0.00,,,0.00,51,WeatherCatV1.24B11,2014-07-23 14:01:00,
2014-07-23 10:06:00,70.1,67.0,29.98,SSE,165,1.0,3.0,90,0.00,,,0.00,62,WeatherCatV1.24B11,2014-07-23 14:06:00,
2014-07-23 10:11:00,69.9,66.8,29.99,South,187,0.0,3.0,90,0.00,,,0.00,81,WeatherCatV1.24B11,2014-07-23 14:11:00,
2014-07-23 10:16:00,69.9,66.8,29.99,SW,233,0.0,4.0,90,0.00,,,0.00,153,WeatherCatV1.24B11,2014-07-23 14:16:00,
2014-07-23 10:21:00,70.0,66.9,29.99,SW,233,0.0,2.0,90,0.00,,,0.00,246,WeatherCatV1.24B11,2014-07-23 14:21:00,
2014-07-23 10:26:00,70.2,67.4,29.99,SW,233,0.0,1.0,91,0.00,,,0.00,264,WeatherCatV1.24B11,2014-07-23 14:26:00,
2014-07-23 10:31:00,70.9,68.4,29.99,SW,233,0.0,0.0,92,0.00,,,0.00,288,WeatherCatV1.24B11,2014-07-23 14:31:00,
2014-07-23 10:36:00,71.7,69.2,30.00,WSW,247,1.0,3.0,92,0.00,,,0.00,575,WeatherCatV1.24B11,2014-07-23 14:36:00,
2014-07-23 10:41:00,72.3,69.5,30.00,SW,229,1.0,1.0,91,0.00,,,0.00,346,WeatherCatV1.24B11,2014-07-23 14:41:00,
2014-07-23 10:46:00,72.7,69.3,30.00,WSW,250,2.0,3.0,89,0.00,,,0.00,185,WeatherCatV1.24B11,2014-07-23 14:46:00,
2014-07-23 10:51:00,73.1,69.0,30.01,WSW,252,4.0,4.0,87,0.00,,,0.00,174,WeatherCatV1.24B11,2014-07-23 14:51:00,
2014-07-23 10:56:00,73.3,68.8,30.01,WSW,251,4.0,4.0,86,0.00,,,0.00,178,WeatherCatV1.24B11,2014-07-23 14:56:00,
2014-07-23 11:01:00,73.5,68.7,30.01,West,261,0.0,2.0,85,0.00,,,0.00,181,WeatherCatV1.24B11,2014-07-23 15:01:00,
2014-07-23 11:06:00,73.6,68.4,30.02,WSW,255,3.0,4.0,84,0.00,,,0.00,128,WeatherCatV1.24B11,2014-07-23 15:06:00,
2014-07-23 11:11:00,73.7,69.2,30.03,WNW,294,3.0,4.0,86,0.00,,,0.00,91,WeatherCatV1.24B11,2014-07-23 15:11:00,
2014-07-23 11:16:00,73.8,69.3,30.05,NNW,336,3.0,10.0,86,0.00,,,0.00,72,WeatherCatV1.24B11,2014-07-23 15:16:00,
2014-07-23 11:21:00,73.5,69.0,30.05,WNW,292,4.0,7.0,86,0.00,,,0.00,70,WeatherCatV1.24B11,2014-07-23 15:21:00,
2014-07-23 11:26:00,72.9,68.8,30.05,NNW,340,4.0,11.0,87,0.00,,,0.00,76,WeatherCatV1.24B11,2014-07-23 15:26:00,
2014-07-23 11:31:00,72.3,68.2,30.05,NW,311,8.0,11.0,87,0.00,,,0.00,77,WeatherCatV1.24B11,2014-07-23 15:31:00,
2014-07-23 11:36:00,71.7,67.9,30.05,WNW,291,4.0,9.0,88,0.00,,,0.00,86,WeatherCatV1.24B11,2014-07-23 15:36:00,
2014-07-23 11:41:00,71.3,67.9,30.04,NE,48,3.0,5.0,89,0.00,,,0.00,118,WeatherCatV1.24B11,2014-07-23 15:41:00,
2014-07-23 11:46:00,71.2,68.1,30.04,NE,38,0.0,2.0,90,0.00,,,0.00,141,WeatherCatV1.24B11,2014-07-23 15:46:00,
2014-07-23 11:51:00,71.2,68.1,30.04,NE,38,0.0,1.0,90,0.00,,,0.00,81,WeatherCatV1.24B11,2014-07-23 15:51:00,
2014-07-23 11:56:00,71.0,67.9,30.06,NW,321,8.0,8.0,90,0.00,,,0.00,77,WeatherCatV1.24B11,2014-07-23 15:56:00,
2014-07-23 12:02:00,70.9,67.8,30.07,WNW,296,9.0,10.0,90,0.00,,,0.00,86,WeatherCatV1.24B11,2014-07-23 16:02:00,
2014-07-23 12:07:00,70.5,67.1,30.07,West,279,4.0,10.0,89,0.00,,,0.00,105,WeatherCatV1.24B11,2014-07-23 16:07:00,
2014-07-23 12:12:00,70.3,66.9,30.07,NW,320,6.0,12.0,89,0.00,,,0.00,139,WeatherCatV1.24B11,2014-07-23 16:12:00,
2014-07-23 12:17:00,70.2,67.1,30.07,West,277,3.0,9.0,90,0.00,,,0.00,209,WeatherCatV1.24B11,2014-07-23 16:17:00,
2014-07-23 12:22:00,70.2,67.4,30.07,West,280,4.0,8.0,91,0.00,,,0.00,209,WeatherCatV1.24B11,2014-07-23 16:22:00,
2014-07-23 12:27:00,70.1,67.3,30.08,West,262,10.0,16.0,91,0.00,,,0.00,195,WeatherCatV1.24B11,2014-07-23 16:27:00,
2014-07-23 12:32:00,69.8,66.7,30.08,WNW,294,7.0,17.0,90,0.00,,,0.00,139,WeatherCatV1.24B11,2014-07-23 16:32:00,
2014-07-23 12:37:00,69.5,66.4,30.08,WNW,291,5.0,12.0,90,0.00,,,0.00,88,WeatherCatV1.24B11,2014-07-23 16:37:00,
2014-07-23 12:42:00,69.2,66.4,30.07,WNW,286,6.0,11.0,91,0.00,,,0.00,62,WeatherCatV1.24B11,2014-07-23 16:42:00,
2014-07-23 12:47:00,69.0,66.3,30.06,NNW,340,3.0,8.0,91,0.00,,,0.00,47,WeatherCatV1.24B11,2014-07-23 16:47:00,
2014-07-23 12:52:00,68.8,66.1,30.06,NW,314,2.0,4.0,91,0.00,,,0.00,47,WeatherCatV1.24B11,2014-07-23 16:52:00,
2014-07-23 12:57:00,68.8,66.1,30.05,NNW,335,2.0,2.0,91,0.00,,,0.00,46,WeatherCatV1.24B11,2014-07-23 16:57:00,
2014-07-23 13:02:00,68.8,66.1,30.04,NNW,330,0.0,1.0,91,0.00,,,0.00,46,WeatherCatV1.24B11,2014-07-23 17:02:00,
2014-07-23 13:07:00,68.7,66.0,30.03,SE,135,1.0,4.0,91,0.00,,,0.00,47,WeatherCatV1.24B11,2014-07-23 17:07:00,
2014-07-23 13:12:00,68.5,65.8,30.03,SE,138,0.0,1.0,91,0.00,,,0.00,60,WeatherCatV1.24B11,2014-07-23 17:12:00,
2014-07-23 13:17:00,68.6,66.2,30.02,SE,138,2.0,2.0,92,0.00,,,0.00,100,WeatherCatV1.24B11,2014-07-23 17:17:00,
2014-07-23 13:22:00,68.5,66.1,30.01,SE,135,2.0,5.0,92,0.00,,,0.00,169,WeatherCatV1.24B11,2014-07-23 17:22:00,
2014-07-23 13:27:00,68.7,66.6,29.99,ESE,119,5.0,7.0,93,0.00,,,0.00,206,WeatherCatV1.24B11,2014-07-23 17:27:00,
2014-07-23 13:32:00,68.8,66.7,29.98,SE,135,1.0,7.0,93,0.00,,,0.00,174,WeatherCatV1.24B11,2014-07-23 17:32:00,